AirNav   ProFlight Series 2 Aviation Headset
 
 907 users online  

58NE Nebraska Methodist Hospital Heliport
Omaha, Nebraska, USA

GOING TO OMAHA?


FAA INFORMATION EFFECTIVE 18 JUNE 2020

Location

FAA Identifier: 58NE
Lat/Long: 41-15-32.9950N 096-02-27.0620W
41-15.549917N 096-02.451033W
41.2591653,-96.0408506
(estimated)
Elevation: 1110 ft. / 338 m (estimated)
Variation: 06E (1985)
Time zone: UTC -5 (UTC -6 during Standard Time)
Zip code: 68114

Heliport Operations

Heliport use: Private use, MEDICAL.
Activation date: 06/1983
Control tower: no
ARTCC: MINNEAPOLIS CENTER
FSS: COLUMBUS FLIGHT SERVICE STATION
Attendance: CONTINUOUS
Wind indicator: lighted
Segmented circle: no

Heliport Communications

WX AWOS-3 at MLE (5 nm SW): 118.25 (402-895-6778)
WX ASOS at OMA (7 nm E): PHONE 402-271-7515
WX AWOS-3 at BTA (10 nm N): 120.225 (402-426-0448)
WX AWOS-3 at CBF (13 nm E): 126.575 (712-323-1542)
WX AWOS-3 at PMV (19 nm S): 118.975 (402-298-7524)

Nearby radio navigation aids

VOR radial/distance  VOR name  Freq  Var
OVRr284/14.8OMAHA VORTAC116.3008E
SCBr122/33.6SCRIBNER VOR/DME111.0006E
LNKr049/37.6LINCOLN VORTAC116.1009E

 
NDB name  Hdg/Dist  Freq  Var  ID
PLATTSMOUTH338/19.832905EPMV .--. -- ...-
WAHOO081/25.240006EAHQ .- .... --.-

Heliport Services

Runway Information

Helipad H1

Dimensions: 75 x 75 ft. / 23 x 23 m
Surface: concrete
Latitude: 41-15.549917N
Longitude: 096-02.451033W
Elevation: 1110.0 ft.
Traffic pattern: leftleft

Heliport Ownership and Management from official FAA records

Ownership: Privately-owned
Owner: NEBRASKA METHODIST HOSPITAL
8303 DODGE ST
OMAHA, NE 68114
Phone 402-390-4446
Manager: MATT SHAW, DIRECTOR
8303 DODGE ST
OMAHA, NE 68114
Phone (402) 354-4057
ADDITIONAL CONTACT: ANDY WHITEING 402-354-7943 ANDY.WHITEING@NMHS.ORG

Additional Remarks

FOR CD CTC OMAHA APCH AT 402-682-4395.

Instrument Procedures

There are no published instrument procedures at 58NE.

Some nearby airports with instrument procedures:

KMLE - Millard Airport (5 nm SW)
KOMA - Eppley Airfield (7 nm E)
KBTA - Blair Municipal Airport (10 nm N)
KOFF - Offutt Air Force Base (10 nm SE)
KCBF - Council Bluffs Municipal Airport (13 nm E)
KPMV - Plattsmouth Municipal Airport (19 nm S)
 
Loc | Ops | Rwys | IFR | FBO | Links
Com | Nav | Svcs | Stats | Notes

Silverhawk Aviation, Inc.
AirBoss

 
Area around 58NE (Nebraska Methodist Hospital Heliport)
 
Road maps at: MapQuest Bing Google
 
Aerial photo
No photo
 
Sectional chart

 
Airport distance calculator
Flying to Nebraska Methodist Hospital Heliport? Find the distance to fly.

From to 58NE

Sunrise and sunset
Times for 07-Jul-2020
 Local
(UTC-5)
 Zulu
(UTC)
Morning civil twilight05:2710:27
Sunrise06:0011:00
Sunset20:5801:58
Evening civil twilight21:3202:32

Current date and time
Zulu (UTC)  08-Jul-2020 01:55:55
Local (UTC-5)  07-Jul-2020 20:55:55
 
METAR
KMLE 
5nm SW 
080135Z AUTO 15006KT 10SM CLR 31/22 A2986 RMK AO2 T03130222
KOMA 
7nm NE 
080052Z 18010KT 10SM CLR 32/21 A2986 RMK AO2 SLP100 T03220206 $
KBTA 
10nm N 
080135Z AUTO 17006KT 10SM CLR 28/22 A2988 RMK AO2 T02810219
KOFF 
10nm SE 
080056Z AUTO 16006KT 10SM CLR 31/23 A2987 RMK AO2 SLP109 T03140227 $
KCBF 
12nm E 
080135Z AUTO 18004KT 10SM CLR 28/23 A2987 RMK AO2
KPMV 
19nm S 
080135Z AUTO 16004KT 10SM CLR 29/23 A2988 RMK AO2 T02870227
TAF
KOMA 
7nm NE 
072028Z 0720/0818 18012KT P6SM FEW060 SCT200 FM072300 16008KT P6SM SKC FM080200 16009KT P6SM SKC
KOFF 
10nm SE 
072000Z 0720/0824 18012KT 9999 FEW180 QNH2990INS BECMG 0800/0801 15009KT 9999 SKC QNH2984INS BECMG 0813/0814 19012G20KT 9999 SCT050 QNH2982INS TX34/0722Z TN22/0810Z
NOTAMs
Click for the latest NOTAMs
NOTAMs are issued by the DoD/FAA and will open in a separate window not controlled by AirNav.

 

 
 

Would you like to see your business listed on this page?

 If your business provides an interesting product or service to pilots, flight crews, aircraft, or users of the Nebraska Methodist Hospital Heliport, you should consider listing it here.  To start the listing process, click on the button below
 
Add a business
 

Other Pages about Nebraska Methodist Hospital Heliport

Update a link
 
Copyright © AirNav, LLC. All rights reserved. Privacy Policy  Contact